FW8807 Weather Reports


time (UTC)temp
C
wind
direction
speed
KPH
gust
KPH
rain 1hr
cm
rain 24hr
cm
rain mn
cm
humidity
%
barometer
mb
20260504210019 12 0.0 0.0 0.03 0.64 0.13 92 1022.7
20260504205017 12 0.0 0.0 0.03 0.64 0.13 92 1022.6
20260504204019 12 0.0 0.0 0.03 0.64 0.13 92 1022.6
20260504203017 12 0.0 0.0 0.03 0.64 0.13 92 1022.6
20260504202018 12 0.0 0.0 0.00 0.64 0.10 92 1022.5
20260504201017 12 0.0 0.0 0.00 0.64 0.10 92 1022.4
20260504200017 12 0.0 0.0 0.00 0.64 0.10 92 1022.3
20260504195019 12 0.0 0.0 0.00 0.64 0.10 92 1022.4
20260504194018 12 0.0 0.0 0.00 0.64 0.10 92 1022.3
20260504193037 12 0.0 0.0 0.00 0.64 0.10 92 1022.2
20260504192017 11 0.0 0.0 0.00 0.71 0.10 92 1022.1
20260504191019 11 0.0 0.0 0.05 0.71 0.10 91 1022.0
20260504190038 11 0.0 0.0 0.05 0.71 0.10 91 1022.0
20260504185017 12 0.0 0.0 0.05 0.71 0.10 91 1022.0
20260504184017 12 0.0 0.0 0.05 0.71 0.10 91 1021.9
20260504183017 12 0.0 0.0 0.05 0.71 0.10 91 1021.9
20260504182017 12 0.0 0.0 0.05 0.71 0.10 91 1021.8
20260504181017 12 0.0 0.0 0.03 0.69 0.05 91 1021.7
20260504180037 12 0.0 0.0 0.03 0.69 0.05 91 1021.7
20260504175017 12 0.0 0.0 0.00 0.66 0.05 91 1021.8
20260504174200 12 0.0 0.0 0.00 0.66 0.05 91 1021.8
20260504173039 12 0.0 0.0 0.03 0.66 0.05 91 1021.8
20260504172018 11 0.0 0.0 0.05 0.66 0.05 91 1021.9
20260504171017 11 0.0 0.0 0.05 0.66 0.05 90 1021.9
20260504151037 12 0.0 0.0 0.00 1.02 0.00 89 1021.9
20260504141019 12 0.0 0.0 0.00 1.02 1.02 88 1021.4
20260504081016 16 270 1.6 9.7 0.00 1.17 0.86 71 1017.8
20260504045016 18 270 6.4 17.7 0.00 1.27 0.86 66 1016.0
20260504044016 18 225 6.4 20.9 0.00 1.27 0.86 64 1015.9
20260504043016 18 248 6.4 24.1 0.00 1.27 0.86 65 1015.9
20260504042016 18 248 6.4 20.9 0.00 1.27 0.86 65 1015.7
20260504041018 18 248 6.4 16.1 0.00 1.27 0.86 66 1015.8
20260504040037 18 248 4.8 16.1 0.00 1.27 0.86 68 1015.7
20260504035016 18 225 4.8 17.7 0.00 1.27 0.86 69 1015.8
20260504034016 18 225 6.4 20.9 0.00 1.27 0.86 68 1015.8
20260504033018 18 248 4.8 22.5 0.00 1.27 0.86 70 1015.7
20260504032018 17 248 4.8 17.7 0.00 1.27 0.86 71 1015.7
20260504031039 17 248 4.8 19.3 0.00 1.27 0.86 73 1015.8
20260504030018 17 248 4.8 14.5 0.00 1.27 0.86 73 1015.8
20260504025018 17 248 4.8 16.1 0.00 1.27 0.86 74 1015.9
20260504024018 17 225 4.8 12.9 0.00 1.27 0.86 74 1015.9
20260504023041 17 248 6.4 16.1 0.00 1.27 0.86 72 1015.9
20260504022018 17 248 4.8 14.5 0.00 1.27 0.86 75 1016.0
20260504021018 17 270 3.2 9.7 0.00 1.27 0.86 76 1016.0
20260504020040 17 248 4.8 16.1 0.00 1.27 0.86 75 1016.0
20260504015038 17 225 4.8 12.9 0.00 1.27 0.86 74 1015.9
20260504014020 17 180 6.4 14.5 0.00 1.27 0.86 75 1015.8
20260504013018 17 248 6.4 17.7 0.00 1.27 0.86 79 1015.7
20260504012040 16 248 6.4 17.7 0.00 1.27 0.86 80 1015.7
20260504011018 16 270 6.4 17.7 0.00 1.27 0.86 82 1015.6
20260504010038 16 248 4.8 14.5 0.00 1.27 0.86 84 1015.5
20260504005018 16 270 4.8 16.1 0.00 1.27 0.86 87 1015.4
20260504004018 15 225 4.8 12.9 0.00 1.27 0.86 88 1015.4
20260504003018 15 270 6.4 16.1 0.05 1.27 0.86 89 1015.3
20260504002018 15 270 4.8 16.1 0.05 1.27 0.86 89 1015.2
20260504001018 15 270 3.2 14.5 0.05 1.27 0.86 90 1015.1
20260504000018 15 248 1.6 9.7 0.05 1.27 0.86 90 1015.0
20260503235017 15 248 1.6 6.4 0.05 1.27 0.86 90 1014.9
20260503234018 15 270 3.2 14.5 0.05 1.27 0.86 90 1014.8
20260503233100 15 270 4.8 20.9 0.03 1.22 0.81 90 1014.7
20260503232018 14 270 1.6 9.7 0.00 1.19 0.79 91 1014.4
20260503231018 14 270 1.6 4.8 0.00 1.19 0.79 91 1014.4
20260503230020 13 270 1.6 9.7 0.00 1.19 0.79 91 1014.2
20260503225018 13 0.0 1.6 0.00 1.19 0.79 91 1014.1
20260503224038 13 270 1.6 16.1 0.00 1.19 0.79 90 1014.0
20260503223058 13 270 4.8 11.3 0.00 1.19 0.79 90 1013.9
20260503222018 13 270 1.6 6.4 0.03 1.19 0.79 90 1013.9
20260503221018 13 270 1.6 9.7 0.28 1.19 0.79 90 1013.7
20260503220019 13 270 3.2 14.5 0.30 1.19 0.79 90 1013.4
20260503215018 13 270 1.6 11.3 0.30 1.19 0.79 90 1013.3
20260503214018 13 270 1.6 9.7 0.30 1.19 0.79 90 1013.3
20260503213019 13 270 3.2 12.9 0.30 1.19 0.79 89 1013.2
20260503212018 13 270 1.6 6.4 0.28 1.17 0.79 90 1013.2
20260503211017 13 293 6.4 19.3 0.05 0.91 0.51 89 1013.1